Weather in Beruwala

Sri Lanka     6°27′21″N   79°59′55″E
temp.,
°C
wind,
m/s
gust,
m/s
humid.,
%
clouds,
%
prec.,
mm/h
press.,
hPa
HPBL,
m
14 april, wed
wed1423:30+25ese1186100 4.9 101238
02:30+25se228889 2.3 1010133
05:30+25ese228823 2.4 1010147
08:30+27se1278100 0.0 1013350
11:30+30sw3365100 0.1 10111041
14:30+29sw4371100 2.0 1009791
17:30+28sw2377100 3.9 1009446
20:30+26s1284100 4.9 1011259
15 april, thu
thu1523:30+25ese1287100 8.2 1012108
02:30+25se1287100 2.1 1010171
05:30+25ese2288100 4.1 1010161
08:30+27ese1181100 0.9 1013275
11:30+29sw227141 4.0 1012824
14:30+29wsw337183 1.7 1009867
17:30+28wsw237550 2.6 1009497
20:30+27wnw117893 0.0 1011386
16 april, fri
fri1623:30+26se0183100 0.9 1011383
02:30+26s128499 0.8 1009444
05:30+25ese118636 1.5 1010110
08:30+28ese117792 0.3 1013438
11:30+30wsw326524 0.3 1011991
14:30+30wsw436618 0.4 1008862
17:30+29sw337076 0.7 1009535
20:30+27ssw127571 0.0 1011427
17 april, sat
sat1723:30+27s128093 0.1 1012415
02:30+26sse238374 0.8 1010417
05:30+26se23855 0.8 1011299
08:30+28se2274100 0.3 1013460
11:30+30sw436465 0.1 10131182
14:30+30sw446994 0.1 1010895
17:30+29sw357498 0.5 1011637
20:30+27s348018 0.3 1013463
18 april, sun
sun1823:30+27s238158 0.4 1013439
02:30+27ssw238259 0.6 1011380
05:30+27ssw238271 1.7 1013392
08:30+29sw347432 1.5 1015851
11:30+30sw446818 2.2 10141078
14:30+30wsw556930 0.5 1011990
17:30+29wsw347424 0.2 1011755
20:30+27sw248115 1.1 1013443